Wind_Speed
9 8 14 20 20 4 2 4 6 2 0 4 13 18 18 20 18 19 20 19 16 17 19 27 16 17 24 28 27 26 24 22 19 16 13 10 8 5 4 3 2 2 3 4
6 15 14 9 10 12 9 5 6 5 1 4 9 17 19 17 17 20 22 21 19 18 25 29 27 22 26 29 29 28 25 21 19 15 12 10 8 6 5 3 2 1 1 2
12 5 13 12 9 12 14 16 10 5 5 4 9 17 13 6 12 12 16 18 19 21 24 27 28 28 29 30 29 28 25 22 19 16 13 10 8 6 5 5 3 2 1 1
10 7 8 12 16 14 13 14 14 10 4 6 2 8 9 4 9 8 13 14 14 17 19 22 27 31 31 29 28 27 24 22 19 16 14 11 8 6 6 6 4 3 3 2
7 12 14 8 10 18 5 5 10 9 9 5 9 7 7 3 9 13 13 16 14 14 17 21 26 29 30 29 29 27 25 23 19 16 14 11 9 7 7 7 5 4 3 3
4 1 6 5 4 17 12 8 6 3 3 5 10 10 8 9 9 5 4 15 16 17 19 22 26 28 29 30 29 28 26 23 20 18 15 11 9 8 8 7 6 5 5 4
9 9 4 6 8 4 6 10 2 2 3 6 4 7 13 7 9 6 6 15 15 19 22 25 28 30 31 32 31 30 27 24 21 18 15 12 9 9 9 8 7 6 6 5
12 8 14 10 7 11 10 8 5 7 6 2 3 9 6 8 5 12 9 14 17 19 21 25 28 30 31 31 31 29 27 24 22 19 15 12 10 9 10 9 8 7 7 6
12 11 12 14 5 10 7 7 2 5 2 2 6 7 10 11 13 10 10 15 20 23 24 26 28 29 30 30 29 28 26 24 22 19 16 12 11 10 10 10 8 7 7 7
8 4 3 7 6 2 8 10 4 2 6 8 7 6 8 3 13 8 10 13 18 22 24 26 28 29 29 28 27 26 25 23 22 19 16 14 12 10 10 10 9 8 8 8
6 3 3 7 13 17 7 6 4 3 5 5 8 10 9 14 8 14 15 18 20 24 27 28 28 28 28 28 28 28 27 25 23 20 18 16 13 11 11 11 10 9 8 8
17 3 7 11 2 4 18 17 13 9 10 6 5 12 3 5 3 5 16 19 20 24 25 27 28 29 30 30 30 29 28 27 23 20 19 17 15 13 11 11 11 10 9 9
19 7 7 4 3 4 10 11 21 15 2 11 7 16 1 4 6 8 12 19 22 24 25 26 28 30 31 31 31 30 28 26 24 23 20 19 17 14 12 12 12 11 11 10
16 5 20 18 23 13 13 22 19 17 7 21 15 28 12 6 8 5 10 20 22 25 26 27 28 30 30 31 31 30 29 27 26 24 23 21 17 15 13 12 13 13 12 11
9 16 15 23 6 17 18 20 20 18 29 14 29 26 20 9 8 7 13 18 21 25 28 30 30 30 30 31 31 30 29 28 26 25 24 21 18 18 16 15 13 14 14 13
13 4 16 17 8 7 10 21 23 26 23 19 12 16 17 18 6 11 19 22 24 28 29 29 29 29 30 30 30 30 29 27 26 25 23 22 22 21 19 17 15 14 15 15
14 7 7 20 9 5 6 20 28 23 22 30 16 36 6 9 12 18 26 35 36 31 30 31 30 28 27 27 27 27 27 27 27 25 25 24 23 22 20 19 17 16 15 15
8 11 6 9 10 17 14 17 18 24 20 23 24 28 20 17 19 25 23 34 35 32 31 30 30 28 26 26 25 25 25 26 25 25 25 24 23 22 21 20 19 17 15 15
12 16 13 7 14 3 8 15 19 19 28 20 28 32 22 9 11 21 30 31 35 35 33 31 28 27 26 24 23 23 23 22 22 23 24 23 23 21 21 20 18 16 16 15
15 22 18 7 14 22 15 14 14 12 15 22 31 27 17 17 12 21 29 28 30 35 33 32 29 26 23 22 21 20 20 21 21 21 20 21 21 20 18 18 17 17 16 16
16 16 23 20 11 5 7 16 26 15 13 18 32 31 25 19 33 17 28 36 33 37 34 31 28 25 24 22 20 20 19 19 19 19 19 19 18 18 17 17 17 16 14 14
2 9 13 16 14 12 8 19 24 21 17 2 12 32 39 51 27 27 32 40 42 42 38 33 32 29 25 23 22 21 20 19 18 18 17 17 17 16 16 15 15 14 14 13
4 6 5 5 5 4 27 25 36 11 15 15 11 22 34 27 26 32 37 42 45 43 39 34 32 29 27 23 20 22 21 20 18 17 16 15 15 14 14 14 14 14 13 13
5 4 6 3 7 9 22 23 30 18 15 16 17 14 26 31 31 36 39 45 49 45 41 38 35 34 32 28 27 26 27 24 22 19 17 14 12 12 12 12 13 13 12 12
1 6 5 6 8 15 23 28 22 24 12 12 12 17 25 33 35 42 44 49 50 48 44 40 40 35 33 34 32 30 27 24 21 19 17 14 12 10 9 9 10 11 12 12
7 7 2 3 2 3 16 27 20 22 27 10 13 17 23 33 41 43 48 53 53 52 49 44 39 41 39 35 32 29 26 21 17 15 12 10 8 7 6 6 6 7 9 11
Wind_Direction
176 205 205 198 203 183 199 252 266 264 112 244 245 263 267 271 264 260 253 248 241 224 208 207 223 218 209 205 206 206 206 206 207 208 210 214 226 242 265 272 288 336 354 28
159 228 223 222 199 210 215 246 263 273 193 248 291 281 278 262 255 245 244 244 243 229 226 224 228 221 206 203 202 203 203 205 203 203 210 214 225 237 245 238 243 283 336 47
201 150 202 186 188 207 225 223 224 248 324 230 300 277 255 245 242 241 240 242 242 235 229 225 218 208 199 198 200 200 200 199 200 203 207 213 222 231 224 221 221 201 216 124
232 189 149 190 215 196 229 215 221 238 266 261 2 290 277 264 259 234 225 222 227 228 218 214 203 196 193 193 196 197 197 196 199 202 205 210 222 226 210 210 208 185 192 161
213 177 178 181 206 191 236 165 207 212 218 270 223 271 266 292 267 249 217 211 211 209 203 194 190 189 188 190 191 192 194 197 199 202 204 207 217 220 205 205 199 183 181 166
254 196 199 200 122 180 142 110 87 85 181 243 206 216 248 239 225 256 201 202 200 192 188 185 185 184 184 185 188 190 192 197 199 200 203 207 210 211 202 200 194 187 186 180
191 205 203 163 123 143 187 165 132 203 205 254 151 203 252 248 246 248 245 202 192 187 183 183 183 182 183 184 187 190 193 196 198 198 202 205 207 202 198 196 197 189 190 191
191 214 187 182 187 177 180 192 173 208 199 251 141 232 237 252 271 256 257 200 184 184 185 184 184 184 185 187 190 192 194 196 197 196 201 204 206 199 197 197 200 196 197 191
194 227 195 177 150 152 182 208 144 102 52 274 210 260 267 248 250 231 216 186 184 186 188 189 187 189 190 192 194 194 195 196 196 196 199 202 204 200 197 198 199 201 200 192
196 169 218 162 143 147 179 138 146 222 216 238 229 262 250 242 242 211 210 208 191 190 190 191 193 193 195 197 197 196 199 199 197 196 197 200 202 199 197 198 200 205 202 196
166 199 132 164 212 178 160 175 181 215 222 242 258 250 199 232 217 209 202 204 198 195 194 195 196 197 199 198 198 198 198 198 199 197 198 201 201 200 197 199 203 203 204 198
204 191 169 200 12 292 222 206 179 182 206 228 278 257 158 244 258 235 206 197 198 199 196 197 198 197 199 199 199 200 199 199 199 200 201 203 202 202 197 200 205 201 202 202
187 203 165 138 282 208 223 213 208 226 47 212 209 254 137 252 249 227 216 198 196 196 197 197 197 198 200 199 201 202 202 201 201 203 203 207 205 204 201 202 207 205 203 207
186 212 211 205 210 156 198 204 205 198 189 228 230 255 235 244 242 204 210 200 195 195 196 197 198 199 200 201 202 202 202 202 204 207 208 211 209 207 208 208 209 209 206 209
200 219 219 230 238 189 200 194 192 199 215 203 232 235 228 244 230 204 195 195 197 199 200 201 200 199 200 201 201 202 205 205 207 211 214 213 211 211 213 214 214 213 210 209
196 221 219 233 227 212 204 196 190 201 215 226 235 262 242 228 186 185 194 194 202 207 206 203 201 201 201 201 202 203 206 209 212 214 217 216 214 214 215 215 216 218 215 215
195 178 182 220 173 152 237 199 194 206 212 216 210 237 158 202 218 199 195 201 205 205 202 201 201 200 200 200 201 203 206 211 214 214 216 217 216 216 215 215 216 217 217 218
225 180 192 209 155 219 219 197 199 203 209 218 233 246 226 210 218 225 221 208 203 200 199 197 194 192 192 194 195 199 204 209 213 215 217 217 217 215 215 215 217 217 217 217
243 231 220 209 200 160 191 188 187 188 226 209 224 241 228 203 211 247 233 223 213 200 196 190 184 185 187 191 193 197 202 206 210 213 215 215 215 214 214 214 215 215 217 218
220 243 209 191 217 219 202 183 195 178 252 211 215 230 211 169 220 235 216 221 211 204 194 188 185 184 185 189 190 194 200 205 207 208 207 206 206 207 209 208 209 211 214 217
206 213 207 208 219 230 194 153 152 173 228 247 215 214 195 192 222 220 209 208 204 194 190 187 183 180 179 179 180 181 188 190 192 192 191 191 193 196 200 203 206 209 213 218
239 209 217 223 233 231 152 159 173 205 211 196 207 196 201 212 222 212 197 197 187 183 181 181 174 171 167 170 168 168 165 165 167 169 172 177 183 188 193 197 201 204 209 213
240 189 305 267 238 307 179 183 200 203 203 222 221 206 209 200 198 191 187 185 178 176 172 170 166 156 157 153 157 154 152 149 150 152 158 166 173 180 186 191 197 202 205 205
234 126 201 125 250 276 209 211 203 209 208 212 222 219 198 181 185 180 175 175 172 168 165 161 154 153 143 141 141 139 131 129 127 129 133 142 155 168 179 188 196 204 208 209
196 157 210 262 273 294 278 235 210 205 196 212 200 199 189 182 176 178 169 171 168 162 158 156 155 149 149 145 139 131 126 123 124 123 123 126 131 140 158 178 195 203 210 214
176 210 291 309 348 320 297 334 274 223 218 225 196 178 187 193 181 179 169 171 166 159 156 152 151 150 145 143 138 133 128 124 121 121 122 127 137 148 158 170 187 201 212 217
Height
1503 1504 1498 1496 1496 1501 1504 1505 1501 1498 1500 1500 1492 1486 1479 1478 1479 1476 1474 1476 1477 1477 1481 1482 1483 1486 1489 1493 1496 1500 1503 1506 1508 1510 1512 1513 1513 1513 1512 1512 1513 1513 1512 1511
1501 1494 1495 1495 1500 1502 1502 1504 1503 1500 1501 1502 1490 1484 1473 1471 1468 1467 1467 1468 1470 1472 1474 1476 1478 1481 1484 1488 1492 1495 1500 1503 1506 1508 1510 1511 1512 1512 1511 1510 1511 1512 1511 1511
1484 1483 1488 1494 1498 1502 1501 1499 1501 1501 1500 1499 1495 1472 1462 1460 1461 1460 1459 1461 1463 1464 1465 1467 1470 1475 1479 1484 1488 1493 1497 1501 1503 1506 1508 1509 1510 1510 1510 1510 1510 1511 1510 1510
1486 1482 1487 1491 1491 1495 1497 1496 1495 1500 1505 1501 1499 1476 1457 1457 1455 1454 1453 1454 1456 1458 1459 1462 1465 1470 1475 1481 1486 1492 1495 1499 1501 1504 1505 1507 1509 1508 1508 1508 1508 1509 1509 1509
1475 1480 1481 1485 1482 1489 1487 1495 1496 1498 1499 1499 1493 1496 1454 1460 1451 1443 1446 1448 1450 1453 1456 1458 1462 1468 1473 1478 1483 1489 1493 1497 1499 1502 1504 1504 1506 1507 1507 1507 1507 1508 1509 1509
1473 1478 1477 1475 1483 1484 1491 1496 1500 1503 1500 1500 1484 1484 1449 1449 1445 1439 1442 1445 1446 1448 1452 1457 1461 1465 1469 1475 1480 1485 1490 1495 1497 1499 1502 1503 1504 1505 1506 1506 1506 1507 1507 1508
1472 1474 1474 1473 1479 1487 1488 1489 1503 1504 1506 1481 1488 1489 1445 1441 1442 1441 1439 1442 1444 1447 1450 1454 1458 1461 1466 1471 1477 1482 1486 1491 1495 1497 1500 1501 1502 1503 1504 1505 1505 1505 1506 1507
1467 1471 1467 1466 1462 1469 1480 1477 1482 1483 1489 1469 1495 1467 1437 1436 1438 1439 1439 1438 1442 1447 1450 1453 1457 1461 1465 1470 1475 1480 1483 1488 1491 1494 1498 1499 1501 1501 1503 1503 1504 1504 1505 1505
1448 1449 1456 1457 1460 1462 1480 1482 1475 1495 1517 1484 1459 1447 1436 1433 1434 1435 1437 1438 1438 1441 1447 1451 1455 1460 1465 1468 1472 1477 1481 1485 1488 1491 1495 1497 1499 1500 1501 1502 1503 1503 1504 1504
1438 1449 1460 1460 1460 1463 1459 1462 1478 1481 1477 1472 1449 1450 1427 1429 1425 1430 1435 1437 1438 1440 1443 1448 1453 1457 1462 1467 1472 1475 1479 1483 1486 1489 1492 1494 1496 1497 1498 1500 1501 1502 1503 1504
1435 1435 1462 1457 1447 1443 1456 1458 1462 1461 1462 1452 1447 1427 1419 1416 1417 1420 1426 1432 1435 1437 1439 1444 1449 1454 1460 1464 1468 1471 1475 1479 1483 1486 1489 1492 1494 1495 1496 1498 1500 1501 1502 1503
1423 1432 1444 1447 1449 1448 1436 1432 1437 1444 1458 1455 1450 1425 1419 1420 1422 1423 1423 1426 1431 1435 1438 1442 1446 1450 1455 1460 1464 1468 1472 1475 1481 1484 1486 1489 1491 1493 1494 1496 1498 1499 1500 1502
1416 1428 1435 1450 1450 1447 1439 1436 1426 1426 1445 1445 1447 1411 1420 1422 1422 1420 1421 1422 1427 1431 1435 1439 1442 1446 1450 1455 1460 1465 1469 1472 1477 1480 1482 1486 1488 1490 1492 1494 1496 1497 1498 1500
1410 1412 1402 1392 1388 1407 1434 1425 1428 1429 1443 1428 1432 1409 1410 1418 1418 1417 1420 1422 1425 1428 1431 1435 1439 1442 1447 1451 1456 1461 1465 1468 1473 1476 1479 1482 1486 1488 1490 1492 1494 1495 1496 1497
1407 1404 1404 1394 1397 1397 1403 1416 1425 1429 1409 1429 1402 1414 1408 1411 1413 1414 1417 1421 1423 1425 1427 1430 1434 1438 1443 1447 1452 1457 1462 1464 1469 1472 1475 1479 1483 1485 1487 1489 1491 1493 1494 1495
1398 1399 1397 1399 1407 1406 1402 1401 1413 1411 1410 1416 1411 1410 1399 1406 1411 1413 1412 1416 1418 1420 1424 1427 1431 1435 1439 1443 1448 1453 1458 1461 1464 1468 1472 1476 1477 1480 1483 1486 1488 1491 1492 1493
1392 1396 1397 1389 1407 1408 1405 1394 1395 1396 1401 1397 1413 1373 1398 1402 1404 1402 1405 1405 1407 1412 1418 1422 1426 1431 1436 1440 1445 1449 1453 1457 1460 1463 1467 1470 1472 1476 1479 1482 1484 1487 1488 1491
1379 1384 1389 1375 1398 1389 1371 1375 1382 1390 1388 1393 1389 1370 1384 1391 1395 1397 1399 1398 1400 1407 1414 1418 1422 1427 1432 1437 1440 1444 1448 1453 1456 1459 1463 1465 1468 1471 1474 1477 1480 1483 1485 1487
1383 1378 1373 1366 1370 1364 1367 1365 1371 1376 1364 1375 1376 1365 1377 1388 1394 1389 1388 1394 1399 1404 1410 1415 1419 1423 1428 1433 1437 1440 1445 1448 1451 1455 1458 1460 1464 1467 1471 1473 1476 1479 1481 1483
1371 1378 1358 1369 1357 1350 1343 1351 1360 1371 1370 1357 1355 1354 1374 1385 1389 1361 1382 1390 1397 1403 1408 1412 1417 1420 1425 1431 1434 1437 1441 1444 1447 1450 1453 1457 1460 1463 1467 1470 1472 1475 1477 1479
1359 1354 1346 1350 1349 1343 1333 1344 1354 1366 1350 1332 1339 1347 1364 1368 1350 1365 1373 1380 1387 1396 1404 1411 1415 1419 1423 1426 1430 1433 1438 1441 1444 1447 1450 1454 1457 1461 1464 1467 1470 1472 1475 1477
1350 1335 1336 1340 1344 1339 1333 1342 1337 1332 1326 1328 1328 1333 1340 1339 1349 1359 1364 1372 1378 1387 1397 1407 1410 1415 1420 1425 1429 1432 1435 1439 1442 1445 1448 1451 1455 1458 1461 1464 1467 1470 1472 1474
1353 1352 1347 1340 1333 1322 1316 1313 1317 1323 1324 1327 1325 1328 1332 1340 1346 1352 1359 1366 1376 1384 1395 1404 1409 1413 1421 1425 1429 1431 1435 1438 1442 1445 1447 1451 1454 1456 1459 1462 1465 1467 1469 1471
1339 1340 1345 1346 1332 1328 1329 1319 1318 1320 1321 1324 1322 1323 1329 1333 1340 1346 1354 1363 1371 1382 1392 1401 1406 1415 1418 1425 1431 1435 1437 1440 1442 1445 1448 1451 1454 1456 1458 1460 1463 1465 1467 1468
1337 1337 1334 1329 1318 1324 1326 1322 1315 1317 1319 1321 1320 1322 1323 1328 1337 1342 1348 1361 1370 1379 1391 1400 1407 1411 1420 1428 1433 1437 1440 1442 1444 1447 1449 1452 1454 1456 1458 1459 1461 1462 1464 1465
1329 1331 1335 1327 1333 1333 1329 1321 1321 1318 1315 1317 1319 1319 1322 1325 1332 1340 1347 1358 1369 1376 1387 1398 1406 1415 1421 1428 1433 1437 1440 1443 1446 1448 1450 1452 1454 1456 1457 1458 1460 1461 1462 1462